Terug naar catalogus

STARLINK-33863

ActiefCommunicatieVLEO
NORAD 63864·PAYLOAD·🇺🇸 United States

Gelanceerd May 10, 2025 vanaf Vandenberg Space Force Base

Loading…

Volgende Passages (komende 24 uur)

TLE

VersSource: CelesTrak SupGP

Epoch: Sep 14, 2026, 21:35 UTC

1 63864C 25094A   26257.89979167 -.00005589  00000+0 -19443-3 0  2574
2 63864  69.9989 115.9291 0003152 272.2857  25.7452 15.29578293    18

Volg STARLINK-33863 in realtime met AllMySat

Download on the App Store